{"data":{"norad_id":68567,"epoch":"2026-05-25T00:39:42.593184Z","epoch_age_seconds":66473,"freshness":"FRESH","line1":"1 68567U 26070AB  26145.02757631  .00022652  00000+0  67914-3 0  9992","line2":"2 68567  53.1592   7.1805 0001020  99.0526 261.0592 15.34417667  8258","mean_motion":15.34417667,"eccentricity":0.000102,"inclination_deg":53.1592,"raan_deg":7.1805,"arg_perigee_deg":99.0526,"mean_anomaly_deg":261.0592,"bstar":0.00067914,"rev_number":825,"period_min":93.84667753568,"perigee_km":461.95297031525,"apogee_km":463.34849101231,"semimajor_km":6840.7877306638,"source":"CELESTRAK","updated_at":"2026-05-25T13:38:21.965024Z"}}